BEIDOU-3 G3

Last updated on Thu Nov 21 2024 00:02:44 GMT+0000 (Coordinated Universal Time)

1 45807U 20040A 24325.55967615 -.00000353 00000+0 00000+0 0 9990 2 45807 1.0850 56.1522 0003226 298.3889 17.5211 1.00276483 16310
UTC large
Height (km)
Speed (km/s)
/
Latitude / Longitude
Inclination (degrees)
Orbital Period (minutes)
Azimuth
Elevation
Range (km)
Doppler Factor

Next 0 passes for location: London (51.5072 / 0.1276)

Sorry there are no passes over London.